{"data":{"norad_id":65270,"epoch":"2026-05-25T03:34:25.574304Z","epoch_age_seconds":72237,"freshness":"FRESH","line1":"1 65270U 25182D   26145.14890711  .00001236  18523-5  43788-5 0  9998","line2":"2 65270  96.5868  76.7212 0003911 179.9256 180.2023 15.96419814 44037","mean_motion":15.96419814,"eccentricity":0.0003911,"inclination_deg":96.5868,"raan_deg":76.7212,"arg_perigee_deg":179.9256,"mean_anomaly_deg":180.2023,"bstar":4.3788e-6,"rev_number":4403,"period_min":90.201837096467,"perigee_km":281.7554512628,"apogee_km":286.96685731908,"semimajor_km":6662.4981542909,"source":"CELESTRAK","updated_at":"2026-05-25T13:38:05.286882Z"}}